Theta_e
332 329 329 331 331 332 332 330 330 330 330 330 329 329 327 322 316 313 314 317 316 313 318 321 319 319 320 321 322 322 322 322 321 321 322 324 326 327 328 329 329 328 328 328 327 328 328 328 328 328 327 327 326 326 326 326 328 330 329 328 328 328 328 329 328 327 326 325 325 325 325 325 324 324 323 324 324 325 326 326 326 327 327 327 327
332 329 328 331 331 332 332 330 331 330 330 330 329 328 323 316 312 312 312 312 313 314 317 319 317 318 319 321 321 321 321 320 318 317 318 320 322 326 328 328 328 328 327 326 326 327 328 328 327 327 326 325 325 326 327 327 327 329 328 328 328 328 328 328 328 328 326 325 324 324 324 325 325 324 323 322 321 321 322 323 324 325 326 327 327
332 327 328 332 332 331 331 331 330 329 329 328 326 324 318 314 313 312 312 313 316 318 318 319 319 319 320 321 322 321 320 321 318 314 314 315 316 321 325 326 326 325 323 324 324 323 324 325 326 325 324 323 323 325 327 328 328 328 328 328 328 329 328 328 328 327 325 324 324 323 324 324 324 322 321 321 320 320 320 320 320 322 325 326 326
331 328 328 332 331 330 331 331 331 330 329 326 322 319 315 314 313 311 313 317 320 322 322 321 321 321 322 323 323 321 321 322 320 315 315 314 310 312 317 319 321 320 320 322 322 320 319 321 324 324 323 323 323 324 326 327 328 328 328 328 328 328 328 328 328 327 325 325 325 324 324 324 322 321 320 320 320 320 320 320 319 321 324 325 326
330 329 329 332 332 330 331 331 331 330 329 325 319 316 315 314 313 311 314 320 322 323 323 322 322 323 322 322 322 321 321 322 319 314 314 312 308 309 312 314 317 318 319 321 321 319 317 320 324 324 324 324 324 324 325 327 328 328 328 328 327 328 328 328 328 327 326 325 325 323 324 324 321 321 321 321 321 321 320 320 320 321 322 322 323
328 327 329 332 332 330 330 330 331 330 329 327 320 316 315 314 313 312 314 319 321 323 324 322 321 322 321 322 321 320 321 321 316 310 308 309 308 311 315 316 317 319 321 322 321 320 319 321 324 325 324 323 323 323 324 325 327 328 328 328 327 327 327 327 327 327 326 326 325 323 323 323 322 321 321 321 321 321 321 320 321 321 321 320 320
327 327 328 331 331 330 330 330 331 330 329 328 324 319 315 315 314 311 313 317 318 320 322 321 321 321 321 321 320 319 320 318 312 307 307 308 309 314 318 319 319 320 320 321 322 322 321 320 322 324 323 323 322 322 323 323 324 325 326 327 327 326 326 326 326 326 326 325 325 323 323 323 322 322 322 321 321 321 321 320 321 321 321 321 321
328 328 329 330 329 329 329 330 330 329 329 328 327 324 317 315 316 314 313 316 317 317 319 321 321 321 321 321 321 320 318 314 310 308 308 308 309 314 318 319 320 319 318 320 321 322 321 320 321 322 322 322 322 321 321 322 322 322 322 323 325 324 325 325 325 325 325 325 324 324 324 323 322 321 321 321 321 321 321 321 322 322 321 321 320
327 328 329 329 328 327 328 329 329 329 329 328 327 326 322 317 318 318 315 315 315 316 319 321 321 320 320 321 320 317 314 310 308 307 307 308 308 310 314 316 317 316 315 318 320 321 321 321 321 321 321 321 321 321 320 320 321 322 321 321 322 323 323 323 324 324 324 325 324 324 324 323 322 322 321 322 321 321 322 321 321 321 320 318 316
328 327 328 328 326 326 326 328 329 328 328 328 326 327 325 322 321 322 320 318 316 315 319 320 317 316 318 320 318 314 313 310 309 308 307 307 307 307 309 310 311 312 312 315 318 319 320 320 319 318 319 320 320 320 320 318 318 319 320 319 320 321 322 322 323 323 322 323 323 322 322 322 321 321 321 321 321 320 321 320 320 320 318 314 312
328 328 328 328 327 327 328 328 328 328 328 328 327 327 327 325 325 326 325 322 318 317 319 317 313 312 314 316 315 312 313 312 309 308 307 306 306 306 306 306 306 307 308 311 315 317 317 316 314 314 316 318 319 319 318 318 318 319 319 317 316 318 320 321 321 320 319 319 320 321 321 321 321 321 320 321 321 320 320 320 319 317 313 310 309
327 328 327 328 327 327 328 328 328 328 328 328 327 327 327 327 327 328 326 324 321 319 319 316 313 312 310 311 313 313 313 311 308 308 307 307 306 306 306 306 306 306 306 308 310 311 311 310 308 306 308 312 314 312 309 311 314 315 315 312 310 312 314 314 312 310 309 310 312 315 317 316 317 318 318 317 318 317 315 314 312 310 308 308 309
326 327 327 326 326 326 327 327 328 328 327 328 327 328 328 328 329 329 327 325 324 321 319 315 313 313 311 312 314 315 313 310 308 308 307 307 306 306 306 306 306 306 306 306 307 307 306 306 306 305 305 306 307 306 305 305 307 307 306 306 306 307 306 306 305 304 305 305 305 307 308 309 310 311 311 310 310 309 308 307 306 306 306 307 308
326 326 326 326 326 326 326 326 328 328 328 328 328 329 329 329 330 330 328 326 325 323 322 318 314 312 312 315 317 317 317 313 309 308 308 307 306 306 305 306 306 306 306 306 306 306 306 306 306 306 306 306 306 306 306 306 306 306 306 305 306 306 305 305 306 305 305 305 304 305 305 305 306 306 306 306 305 305 305 305 304 304 304 305 307
324 325 325 325 326 326 326 326 327 328 328 329 329 329 330 330 331 330 328 325 324 323 323 320 317 313 313 317 319 320 320 316 310 308 308 307 306 306 306 306 306 306 306 306 306 306 306 306 306 306 306 306 306 306 306 306 306 306 306 306 306 306 306 306 305 305 305 305 304 304 304 304 304 304 304 303 303 303 303 303 303 303 303 303 304
322 322 323 324 325 326 326 326 327 327 327 328 329 330 330 330 331 330 329 327 325 323 321 320 318 314 313 316 318 320 322 317 311 309 309 308 307 307 307 307 307 306 306 306 306 306 306 306 306 306 306 306 306 306 306 306 306 306 306 306 305 305 305 305 305 304 304 304 304 303 303 303 303 303 303 303 303 302 302 302 302 302 302 302 303
324 325 325 326 327 327 327 327 328 328 327 326 326 328 329 330 330 330 329 329 327 325 322 321 319 315 314 315 315 318 321 318 313 310 311 311 310 309 309 308 308 308 307 307 307 306 307 306 306 306 306 306 306 306 306 306 306 306 306 305 305 305 305 304 304 304 303 304 303 303 303 303 303 303 303 303 303 302 302 302 302 303 303 302 302
325 327 327 327 327 326 326 326 326 327 328 328 326 325 327 327 328 328 327 326 326 325 324 323 319 314 315 316 314 316 320 318 315 313 312 313 313 313 313 310 309 309 308 308 307 307 307 307 307 307 307 307 306 306 306 306 306 306 306 305 305 305 305 305 305 305 305 305 304 305 305 305 305 305 304 304 303 303 303 304 304 305 305 304 304
325 326 326 326 325 325 325 324 324 325 327 329 328 327 327 327 327 327 326 325 325 325 324 323 320 314 315 317 315 317 319 318 316 315 314 315 315 315 315 314 312 311 310 309 308 308 308 308 307 307 307 307 307 306 306 306 306 306 306 306 306 307 307 307 307 307 307 307 307 307 306 307 306 306 306 306 305 305 305 305 306 306 306 306 306
323 325 325 326 324 325 325 325 325 325 326 327 328 328 329 329 328 327 325 324 325 325 325 324 320 315 314 317 315 317 319 319 317 316 316 316 317 316 316 316 314 313 312 310 310 309 309 309 309 308 308 308 307 307 307 307 307 307 307 307 307 307 307 308 308 308 308 308 308 308 308 308 308 307 307 307 307 307 307 307 307 307 306 306 306
324 324 325 325 325 326 326 326 326 326 326 326 327 327 327 327 327 326 325 324 325 326 325 323 319 314 315 317 316 317 319 319 318 317 316 317 318 318 317 317 316 314 314 313 313 311 310 310 311 310 309 309 309 309 309 308 308 308 308 308 308 308 308 308 308 308 308 308 308 308 307 308 308 309 309 309 309 308 308 307 307 307 306 306 306
321 323 324 324 325 326 325 325 326 326 326 326 326 326 325 325 325 324 324 325 326 326 325 324 319 314 315 317 316 317 319 319 318 318 317 318 318 318 318 318 317 317 316 316 316 315 314 315 314 313 312 312 312 312 311 311 310 310 309 309 309 309 308 308 308 308 308 308 308 308 307 307 308 308 308 309 309 308 308 308 307 306 306 305 305
316 321 324 323 324 324 324 325 325 326 326 326 326 325 325 324 324 324 323 325 327 326 325 323 318 314 316 317 316 318 320 320 318 318 318 318 319 319 318 318 318 318 318 318 318 317 317 317 317 316 316 316 316 316 315 315 314 314 313 312 311 310 309 309 309 309 309 309 309 309 308 308 307 307 307 308 308 308 308 307 306 306 305 304 304
313 317 320 320 319 320 322 325 325 325 325 325 325 325 326 325 324 324 324 326 327 326 324 322 317 315 316 316 317 319 321 320 318 318 318 319 319 319 319 319 319 318 318 318 318 318 318 318 317 317 317 317 317 317 317 317 317 317 317 316 315 314 312 311 310 310 309 309 309 309 309 309 308 308 307 307 308 308 307 307 306 306 305 304 303
313 314 314 314 313 314 317 321 323 324 324 325 326 324 325 325 325 325 325 326 326 324 322 320 318 317 316 317 320 321 320 319 318 319 319 319 319 319 319 319 319 318 318 318 318 318 318 318 317 317 316 316 316 316 316 317 317 317 317 318 318 318 316 315 314 313 311 310 310 309 309 309 309 309 308 307 307 307 308 307 307 307 306 305 304
314 315 313 313 312 311 312 317 322 324 324 324 325 325 325 325 324 325 325 325 324 322 321 319 317 318 317 319 322 322 320 319 318 318 319 319 319 319 319 319 319 318 318 318 318 318 318 318 318 317 317 316 316 317 317 317 317 317 318 318 318 318 318 318 317 316 314 313 312 311 310 310 310 310 309 309 308 308 308 307 307 306 306 306 306
316 316 315 314 313 312 311 313 319 323 324 324 324 325 325 325 324 324 324 324 323 322 321 319 316 318 320 321 321 321 321 321 320 320 320 320 320 319 319 319 318 319 318 318 318 318 318 319 318 318 317 317 316 317 318 317 317 318 318 318 318 318 319 319 318 318 316 315 314 313 312 311 311 312 311 311 310 308 307 307 306 306 306 306 305
317 317 316 315 314 313 312 312 313 317 320 323 324 325 325 325 324 324 324 324 323 323 323 321 319 320 322 322 321 321 320 320 320 320 320 320 320 319 319 319 319 319 319 318 318 318 319 318 318 318 317 317 317 317 317 316 316 318 319 320 319 319 319 319 319 318 317 316 315 314 314 313 313 313 312 311 310 309 308 307 306 306 306 305 304
316 317 317 316 314 313 313 312 312 311 313 316 319 322 324 324 324 324 324 324 323 323 323 322 321 321 322 322 322 321 320 319 319 319 318 318 318 318 318 318 318 318 318 318 319 318 318 318 319 319 318 318 318 317 316 315 316 316 317 317 319 319 319 319 319 318 318 317 316 316 315 314 314 313 312 312 311 309 308 307 306 306 305 304 303
315 315 315 315 314 314 313 314 313 312 310 311 312 314 317 320 322 322 322 323 322 322 323 322 321 320 319 320 320 320 318 318 319 319 318 318 318 318 318 318 320 320 319 320 319 318 318 318 318 318 318 318 317 317 316 316 316 316 315 315 317 319 319 319 319 318 318 317 317 316 316 315 314 313 312 312 311 309 308 307 307 306 305 303 302
314 313 314 314 313 314 314 313 313 313 312 311 311 310 310 312 315 317 318 318 318 318 318 318 317 315 315 316 317 318 319 319 319 317 317 318 318 318 318 319 320 320 319 318 317 316 316 317 317 317 317 317 316 316 316 316 316 317 317 318 318 319 319 319 319 318 318 318 318 317 316 315 314 313 312 312 311 309 308 307 307 306 305 304 302
315 313 313 313 313 313 314 314 313 313 313 312 312 310 309 309 309 311 313 313 312 313 313 312 312 311 312 313 314 316 317 316 315 313 312 314 315 315 315 315 315 316 314 313 313 313 313 315 315 315 315 316 316 317 318 318 318 318 319 319 319 319 319 319 319 318 318 318 317 316 315 315 314 313 312 311 309 308 307 307 306 306 306 304 302
314 313 313 312 312 312 313 313 313 313 313 313 312 310 310 309 308 309 310 311 310 309 310 309 309 309 309 310 311 311 311 311 310 310 310 310 310 310 310 310 311 311 311 310 310 311 312 313 313 314 314 315 317 317 317 318 319 320 321 321 321 320 320 319 318 318 318 317 317 316 315 314 313 313 311 309 308 308 308 307 306 306 306 303 301
312 311 311 310 310 310 310 310 310 311 312 313 312 311 311 310 309 309 309 309 308 307 307 307 307 306 307 308 308 308 308 308 307 307 306 305 306 306 307 307 308 309 310 311 310 311 312 314 314 313 312 311 311 310 309 309 310 313 316 319 319 320 320 319 318 318 317 316 315 315 314 313 312 312 310 309 308 308 309 307 305 304 303 302 300
310 310 310 309 309 309 308 308 308 309 310 311 312 311 311 310 309 309 308 308 308 308 308 308 306 306 306 308 309 309 308 308 308 307 306 305 305 306 307 308 308 310 312 313 313 314 316 317 317 315 312 309 307 306 304 304 305 307 310 313 316 318 319 319 318 317 316 314 314 313 312 312 311 310 309 308 307 308 308 307 304 303 302 301 301
308 308 309 308 308 308 308 307 307 307 308 309 309 310 310 309 309 309 309 309 308 309 309 309 308 307 306 308 308 308 308 308 307 306 305 305 305 306 308 308 308 308 310 312 313 314 316 317 317 316 313 309 307 305 305 305 307 308 309 310 313 315 317 317 317 316 315 314 313 312 311 311 310 309 308 306 306 306 306 305 303 302 302 301 301
305 305 305 305 306 307 307 307 307 307 307 307 307 307 308 308 308 309 310 309 308 308 308 309 309 308 308 308 309 309 309 308 306 305 304 303 303 304 305 305 305 305 305 306 308 310 311 312 313 314 313 310 307 306 307 307 307 307 307 308 311 313 315 315 315 315 314 313 312 311 311 310 309 307 306 305 305 305 304 303 303 302 302 301 301
302 303 303 303 304 305 305 306 307 307 307 307 307 307 307 307 308 308 309 309 308 308 308 308 308 309 308 308 308 310 310 309 308 307 305 304 303 303 303 303 303 303 303 305 306 306 305 306 308 310 311 311 310 309 309 309 309 308 308 309 310 312 314 314 314 314 313 312 311 310 310 309 307 306 305 305 305 304 303 302 302 301 301 301 301
302 302 302 302 302 303 303 304 305 305 306 307 307 307 307 307 307 307 308 308 308 307 307 307 307 308 307 307 308 310 310 309 309 308 307 306 305 304 303 303 302 302 302 303 305 305 305 306 306 307 308 308 309 309 309 310 310 309 310 311 312 313 313 313 312 312 312 311 311 310 309 307 306 306 305 305 304 303 302 302 301 301 301 301 300
301 302 302 302 302 302 302 302 303 303 304 304 305 306 306 307 307 307 307 307 307 307 307 307 307 306 307 307 308 309 309 309 309 308 308 307 305 304 304 304 303 303 302 302 303 305 307 309 308 307 306 306 307 309 310 311 311 311 311 312 313 313 312 311 311 311 310 310 309 308 307 306 306 306 306 305 303 302 302 301 301 301 300 300 299
299 300 300 301 302 301 301 301 302 302 303 303 303 303 304 305 306 306 307 307 307 307 307 306 306 306 306 307 307 307 307 307 307 307 306 306 305 305 304 304 304 304 303 303 302 303 306 309 310 309 307 307 308 310 312 312 312 311 311 312 313 311 309 309 309 309 309 308 307 307 307 307 306 305 304 303 302 301 300 300 300 299 299 298 298
299 298 299 299 300 301 301 301 301 302 302 302 302 302 303 303 303 304 305 305 306 306 306 306 306 306 306 306 306 306 306 306 306 305 305 305 306 306 306 305 304 304 304 304 303 302 302 305 309 311 310 310 310 311 312 312 312 312 312 312 311 309 307 307 308 308 308 307 307 307 306 305 304 302 301 300 300 299 299 299 298 297 296 296 295
298 298 298 299 299 299 299 300 300 300 301 301 301 301 302 302 303 303 303 303 304 304 305 305 305 306 306 306 306 306 306 306 306 305 304 304 305 306 307 307 306 305 305 305 304 303 302 303 307 310 311 311 311 312 312 312 312 311 311 310 309 308 307 307 307 307 307 307 306 305 304 303 301 300 300 299 299 299 298 296 295 294 294 294 294
298 298 298 298 299 299 299 299 299 299 300 300 300 300 300 301 302 302 303 302 303 303 303 304 304 305 305 305 305 306 306 306 305 305 305 305 305 305 306 306 306 306 305 305 304 303 304 305 307 309 311 311 311 311 311 311 311 310 310 309 308 307 306 306 306 307 306 305 304 303 301 300 300 299 298 298 297 296 295 294 294 294 294 294 294
298 298 298 298 299 299 299 299 299 299 299 299 299 299 299 300 300 301 302 302 302 302 303 303 303 304 304 304 305 304 305 305 305 305 305 305 305 304 304 304 305 305 304 304 304 304 305 307 309 310 311 311 311 311 310 310 309 309 308 308 307 306 306 306 306 305 304 303 301 299 298 298 297 296 295 295 294 294 294 294 294 294 294 294 293
299 299 299 299 299 298 298 299 299 299 299 299 299 299 299 300 300 300 301 301 302 302 302 302 302 303 303 303 304 304 304 304 305 304 304 303 304 304 304 304 304 304 304 304 305 305 306 308 310 310 310 310 310 310 309 308 307 307 307 306 306 305 305 305 303 301 299 297 296 295 295 295 294 294 294 294 294 294 294 294 294 294 294 293 293
299 299 299 299 299 299 299 299 298 298 299 299 299 299 300 300 300 300 301 301 302 302 302 302 302 302 302 303 303 303 304 303 303 303 303 303 304 304 304 305 305 305 305 305 306 307 308 309 309 309 309 309 309 308 307 306 305 305 305 305 304 304 303 301 299 297 295 295 294 294 295 295 295 295 295 295 294 294 294 294 293 293 293 292 291
299 299 299 299 299 299 299 299 299 299 299 299 298 299 299 300 300 300 300 301 301 301 302 302 302 302 302 302 303 303 303 303 303 303 303 303 304 304 304 304 305 305 306 306 307 308 308 308 307 307 307 307 307 306 305 304 304 303 304 303 303 301 299 297 296 295 295 296 296 296 296 296 295 294 294 294 293 293 293 293 293 292 292 291 291
299 299 299 299 299 299 299 299 299 299 299 299 299 298 298 299 299 299 299 300 300 300 301 301 302 302 302 303 303 303 302 303 303 303 303 303 303 304 304 304 305 305 306 306 307 307 306 306 305 305 306 306 305 304 304 304 303 302 302 301 299 297 296 296 296 296 296 296 296 296 296 295 294 293 293 293 293 293 293 293 292 292 292 291 291
298 298 299 299 299 299 299 299 299 299 299 299 299 299 299 299 298 298 299 299 299 299 300 300 300 301 302 302 302 302 302 302 302 302 302 302 302 303 304 305 305 305 305 305 305 305 305 305 305 305 305 305 304 304 304 303 302 301 300 298 296 296 296 296 297 297 297 296 296 295 294 293 293 293 293 293 293 293 293 293 293 292 292 291 291
297 297 297 298 298 298 299 299 299 299 299 299 299 299 299 299 298 299 298 299 299 299 299 299 299 300 300 300 301 301 301 301 301 301 301 301 301 302 303 304 304 304 305 306 305 304 304 304 304 304 304 304 304 304 303 302 301 298 297 296 296 296 297 296 296 297 296 295 294 293 293 293 293 293 293 293 293 292 292 292 293 293 292 291 290
Wind_Speed
30 29 30 29 29 29 30 31 27 24 23 22 24 24 22 21 21 22 22 22 20 19 20 19 16 14 14 13 11 10 8 6 5 4 5 6 7 8 9 9 8 8 8 11 12 13 13 13 13 13 12 12 11 11 10 10 13 15 17 17 16 16 15 13 12 11 11 10 9 9 9 9 9 10 10 10 11 11 12 12 13 14 15 15 13
30 29 29 28 29 29 30 31 28 25 24 22 23 23 22 22 23 23 22 21 20 19 19 19 16 12 12 14 12 10 8 5 4 4 4 5 7 8 9 9 8 8 8 8 9 11 12 13 13 12 11 11 10 10 10 11 13 15 17 18 18 18 16 14 13 12 10 8 6 6 7 7 7 8 9 9 9 10 12 13 13 13 14 16 17
30 30 30 29 28 27 27 30 28 24 23 21 22 24 25 25 23 22 21 21 19 17 17 17 15 11 11 12 12 10 8 7 5 4 4 6 7 8 9 8 9 9 8 7 7 8 10 11 11 10 9 9 9 9 10 12 14 15 17 18 18 18 16 14 13 11 9 7 5 6 6 5 5 6 6 6 6 7 10 13 14 14 13 14 16
32 32 32 31 29 27 27 29 27 25 24 21 23 27 28 25 22 22 22 21 19 18 17 16 14 12 10 11 11 9 9 9 6 5 6 7 8 10 10 10 10 10 9 8 7 8 9 9 9 8 8 8 8 8 9 12 13 15 16 17 17 17 16 14 14 12 11 9 6 5 6 5 4 4 3 2 2 2 3 7 12 13 13 12 13
36 35 35 34 32 30 28 28 27 26 25 23 25 29 28 25 23 22 22 21 19 18 17 15 14 14 13 14 14 12 11 11 9 9 10 11 10 11 12 12 12 11 9 8 8 7 7 8 9 9 8 8 8 7 9 11 12 13 15 16 16 16 16 15 15 14 13 12 9 7 6 5 4 4 3 0 0 1 2 1 3 7 9 10 11
37 37 38 37 35 33 29 27 27 27 27 25 25 29 28 25 23 22 23 22 19 18 18 15 15 14 14 15 15 14 14 12 11 11 13 14 13 13 13 13 13 11 9 8 7 7 6 7 9 9 9 9 8 7 8 10 11 12 14 15 16 16 16 16 15 15 14 13 11 9 7 4 3 3 2 1 1 1 2 3 2 2 4 6 8
37 37 37 37 36 35 32 29 28 29 29 26 25 27 27 26 23 23 24 22 20 18 17 16 15 13 12 13 14 14 13 12 11 11 14 15 14 14 13 14 13 12 10 9 7 7 8 7 9 9 9 9 8 7 7 8 10 11 11 13 13 14 15 15 15 15 14 12 10 10 9 6 3 2 2 3 3 2 3 4 3 2 2 3 4
37 37 37 37 36 37 36 32 30 30 30 28 26 26 27 27 24 23 24 22 19 18 17 16 15 13 12 13 13 13 13 11 12 13 14 15 15 15 15 15 14 12 12 11 9 8 7 7 7 7 7 8 8 7 7 7 7 7 7 8 8 8 9 10 10 10 10 9 9 9 9 8 6 6 6 6 5 3 3 2 1 1 1 1 1
36 36 36 35 35 37 38 35 33 31 30 29 27 26 27 28 26 23 23 22 19 18 18 17 14 11 12 14 14 13 12 12 14 14 14 14 14 14 14 14 13 11 11 13 12 9 8 7 7 7 6 7 8 6 5 5 5 5 5 5 4 3 5 6 5 6 6 6 6 7 7 7 7 7 7 6 4 2 1 2 3 2 1 0 1
35 34 35 35 35 36 37 36 34 33 31 29 28 27 27 28 27 26 24 22 19 18 19 18 14 12 13 15 15 15 15 15 14 13 13 13 12 13 13 12 12 11 11 13 13 12 11 10 9 9 8 7 7 6 6 5 5 5 4 4 4 4 5 4 3 3 3 2 3 3 4 5 5 6 6 5 4 3 4 4 4 4 4 4 5
33 33 32 34 35 35 37 36 35 34 33 31 30 29 29 29 29 28 26 24 22 21 21 19 16 15 15 17 17 18 18 17 15 14 14 13 13 13 13 13 12 11 11 12 13 12 11 10 8 9 11 11 9 8 7 6 5 4 3 1 2 4 6 5 4 4 4 2 2 2 2 2 3 4 4 4 3 3 4 5 6 7 9 8 6
30 29 29 31 33 34 35 35 35 35 35 34 33 33 33 31 30 30 30 28 25 24 23 19 18 17 16 18 20 19 19 17 15 14 14 14 14 13 13 13 12 12 11 12 11 10 8 7 6 6 7 9 8 7 5 5 5 4 4 3 2 4 5 4 4 3 3 2 2 1 1 2 3 4 4 4 5 5 7 8 9 10 9 6 3
24 24 25 26 28 30 33 34 35 36 37 37 36 35 34 32 32 32 33 32 28 27 26 21 19 18 18 20 21 18 17 16 14 13 14 14 14 14 14 13 13 12 12 12 11 10 9 9 8 8 9 8 7 6 6 6 6 6 6 5 6 7 6 5 5 4 4 3 2 2 2 3 4 5 5 6 6 7 7 7 8 8 6 4 1
21 20 20 20 21 23 28 32 35 37 38 39 38 36 34 33 33 34 36 35 32 28 26 22 19 19 20 21 19 17 16 16 15 13 14 15 14 14 14 13 13 13 12 12 12 11 10 8 8 8 8 8 9 9 9 9 9 9 9 9 9 8 7 7 6 5 5 5 4 4 3 3 3 4 4 5 5 5 5 4 5 5 4 3 0
22 20 19 18 16 16 18 21 25 31 35 38 39 38 37 35 35 36 36 34 29 25 23 20 20 22 23 20 18 19 18 16 16 15 14 16 16 15 16 15 14 14 13 12 12 11 10 9 7 7 6 7 7 7 7 8 7 7 7 7 7 7 7 6 5 5 5 4 4 4 3 2 2 1 1 2 3 3 4 5 5 5 3 2 1
21 19 17 15 13 11 11 12 14 20 26 33 37 39 40 39 38 38 35 32 31 29 27 26 25 27 25 20 18 21 21 18 18 17 16 18 18 17 17 16 15 15 14 13 12 12 11 10 9 7 7 7 7 7 6 6 6 5 5 5 5 6 6 6 6 6 5 4 4 3 4 3 3 2 1 1 2 3 4 5 6 6 6 4 3
21 20 19 16 13 11 10 10 10 13 18 25 31 35 38 40 40 37 35 36 36 34 32 31 31 30 26 21 20 23 25 22 19 18 18 19 19 18 18 17 16 15 15 14 13 12 11 10 9 8 7 7 8 8 7 6 5 5 5 5 6 6 6 6 6 6 5 5 4 3 4 4 3 3 2 2 2 3 4 5 6 6 6 7 5
24 23 22 18 14 12 9 7 5 7 10 16 21 26 31 34 37 37 36 37 35 32 30 31 32 30 27 23 23 25 26 25 21 19 19 20 20 19 18 18 17 16 15 14 13 13 12 11 9 8 7 7 7 7 7 7 6 5 6 6 6 6 6 6 6 5 5 5 5 4 4 4 4 4 4 3 3 3 3 4 5 6 7 7 7
23 22 20 15 10 8 7 5 3 4 6 8 11 16 22 26 30 33 34 34 33 33 32 32 32 31 29 26 26 27 28 28 24 20 21 21 20 19 18 17 17 17 15 14 13 12 11 11 10 8 8 7 6 6 7 7 6 6 6 6 6 5 5 5 5 4 3 4 3 3 4 4 4 4 4 4 4 3 3 4 5 5 6 7 7
20 19 16 13 9 6 6 7 5 6 6 7 9 11 16 22 27 30 31 31 32 33 33 33 32 33 31 29 28 28 30 31 27 23 22 22 20 19 18 16 16 16 16 15 13 12 11 10 9 8 8 7 6 5 5 5 5 5 5 5 4 4 3 2 2 1 1 1 1 1 1 2 3 4 3 3 2 3 3 4 5 6 6 8 9
20 18 16 14 11 8 8 8 8 8 9 9 10 12 14 19 24 28 29 29 31 33 33 33 33 33 32 31 31 30 31 33 30 25 23 22 21 20 19 16 15 15 16 16 14 13 12 10 9 8 8 7 6 5 4 4 5 4 4 4 4 4 3 3 3 3 2 2 2 2 2 2 1 2 2 2 2 3 4 4 5 6 7 9 11
18 17 15 13 12 10 8 7 8 10 10 10 11 12 12 15 19 24 26 27 30 31 31 32 33 32 31 30 31 30 29 32 33 28 25 24 22 22 20 18 16 14 14 13 12 13 12 11 9 8 7 6 6 5 4 4 4 4 4 5 5 5 5 5 5 5 5 4 4 4 5 5 4 3 1 2 3 4 5 5 5 6 8 9 11
16 16 14 12 11 10 9 7 8 9 10 10 11 12 12 13 16 20 23 25 27 30 31 32 32 32 31 30 31 30 28 31 32 28 27 27 25 24 23 20 18 16 14 13 11 11 12 12 11 10 8 7 5 4 3 3 4 4 4 5 6 6 7 7 7 6 6 6 5 5 6 6 6 5 4 4 4 5 6 7 7 8 9 10 12
14 14 12 11 10 9 10 10 9 9 10 11 11 12 14 15 16 19 20 21 25 29 30 30 31 33 33 31 30 30 31 33 34 31 30 30 28 27 26 23 20 18 17 15 13 12 11 11 11 10 9 7 6 6 5 5 5 6 6 6 7 8 8 9 9 8 8 8 7 7 8 7 7 7 7 6 6 6 6 7 8 8 10 11 13
12 13 11 10 10 9 10 10 10 10 11 11 12 12 13 14 16 19 21 22 25 28 28 30 33 34 34 32 29 30 33 35 34 32 32 32 31 29 27 24 22 20 19 17 16 15 13 12 10 9 8 8 9 10 9 9 8 8 9 10 10 9 10 10 10 11 11 10 10 10 10 10 10 9 8 8 8 8 7 7 8 9 10 12 14
11 12 11 10 10 10 10 10 11 11 11 12 12 12 13 14 15 18 21 24 27 27 27 30 34 33 32 32 30 29 31 33 34 33 32 32 32 31 30 27 24 22 20 19 18 16 15 14 13 12 11 11 12 13 12 11 11 11 12 13 13 13 13 12 12 13 13 13 12 12 12 12 12 11 11 11 10 10 9 9 9 10 11 13 15
10 11 12 11 11 11 11 11 11 11 10 11 12 13 14 15 15 17 21 23 25 25 25 27 31 30 27 28 30 29 26 25 27 28 28 30 30 29 29 28 26 24 21 20 18 17 17 16 15 14 13 14 15 14 13 13 13 14 14 16 16 17 17 16 15 15 15 15 14 14 15 14 13 13 14 14 13 11 11 11 11 12 13 14 15
13 13 13 12 13 12 11 10 10 10 11 11 12 13 14 15 16 16 18 19 19 21 23 24 27 27 22 22 28 29 23 17 18 23 26 28 29 27 24 23 24 23 22 21 19 18 19 18 17 16 16 17 17 16 16 17 18 17 17 19 20 20 20 19 18 17 17 17 17 17 17 16 15 15 15 15 14 13 13 13 13 13 14 16 16
15 16 16 15 14 14 13 11 9 9 10 11 11 12 14 15 15 14 14 15 14 16 19 21 25 26 22 21 23 23 22 20 20 22 22 22 24 27 25 23 23 23 23 21 19 19 19 18 18 17 17 17 17 19 21 22 20 17 16 18 21 23 23 22 21 20 19 20 20 20 19 18 18 17 16 16 16 15 15 15 15 15 16 17 18
12 14 16 16 16 16 15 15 12 9 9 9 8 9 11 13 14 13 12 11 11 11 12 14 18 19 18 20 21 20 21 23 23 21 18 17 19 22 24 23 23 22 22 21 20 21 22 22 22 21 21 21 22 24 26 26 24 20 17 17 21 24 25 24 24 23 22 22 23 23 22 21 20 18 17 17 17 16 16 16 16 17 17 18 19
8 9 12 13 13 16 16 15 14 12 10 9 7 6 7 10 12 13 12 10 9 9 9 9 9 9 10 12 14 15 17 19 17 14 12 12 13 15 16 17 17 17 18 18 18 19 21 22 23 23 23 23 23 24 24 25 25 24 23 23 24 24 24 24 25 25 26 25 25 25 24 23 22 21 19 18 17 17 16 16 17 18 19 20 19
5 6 9 10 10 13 15 15 14 13 11 9 7 5 5 7 9 11 12 11 10 10 11 12 12 11 11 11 13 14 15 15 14 12 11 11 12 13 13 14 14 15 15 16 17 18 18 18 19 20 20 20 20 20 20 20 21 21 23 24 25 26 26 25 26 27 28 28 27 27 26 25 24 22 20 18 17 16 16 17 18 19 21 21 20
8 8 9 9 10 13 13 12 12 12 11 9 6 5 4 5 8 11 11 9 8 8 10 11 11 10 10 11 12 12 13 14 13 13 13 13 13 14 14 14 14 14 15 15 15 16 16 15 15 16 17 18 18 19 19 19 19 19 20 21 23 23 23 23 25 27 29 29 29 28 28 26 24 22 20 18 17 16 18 18 20 21 22 21 20
13 12 13 12 12 15 15 12 9 8 9 10 7 4 4 4 7 9 9 8 7 6 6 8 8 7 8 9 10 11 12 13 13 13 12 12 12 13 13 12 12 12 13 12 12 11 11 10 10 11 12 15 17 17 18 17 17 18 18 20 21 20 19 20 23 27 29 30 29 29 28 25 23 21 19 18 17 17 19 20 21 22 22 20 19
13 10 10 11 12 15 15 12 11 9 6 9 9 7 6 6 6 7 7 7 7 6 5 6 6 8 11 12 11 11 12 12 12 12 11 11 11 11 11 11 10 10 11 11 10 10 9 8 9 10 12 14 15 15 16 15 15 15 15 16 17 18 18 18 20 24 28 28 27 27 25 22 20 20 19 18 17 18 21 23 23 23 22 20 19
16 11 5 3 3 7 9 8 9 12 11 9 7 6 7 7 7 7 5 5 5 4 4 5 4 5 9 10 10 11 12 12 11 11 11 11 12 12 12 10 9 10 11 11 12 13 12 11 11 12 14 14 14 13 13 13 14 14 14 13 12 13 14 14 15 19 24 26 26 25 23 20 20 20 19 18 18 20 23 25 25 24 22 20 20
17 16 12 9 7 5 5 6 2 5 9 9 8 4 4 5 7 9 8 6 6 4 5 7 7 6 7 8 8 11 12 10 9 8 8 9 9 10 11 10 9 9 9 10 11 13 13 14 15 15 15 14 13 12 12 13 13 14 13 13 12 10 9 10 12 16 21 23 24 23 22 22 21 20 19 19 20 23 25 25 23 22 21 20 21
15 15 15 14 13 11 10 11 11 10 6 3 4 3 2 3 3 7 9 8 7 5 4 6 8 9 9 9 9 11 12 11 9 7 6 5 3 5 7 8 8 7 8 8 9 10 11 13 15 16 16 15 15 15 15 15 15 14 12 12 11 9 9 9 12 15 18 20 21 21 21 21 21 20 20 21 23 24 24 23 22 21 22 22 24
13 13 13 13 13 13 12 11 11 11 11 10 10 9 6 4 3 3 6 8 7 5 4 4 5 8 8 9 12 13 13 11 9 8 7 6 5 5 5 5 5 5 6 8 9 10 11 12 13 14 15 16 16 16 17 17 16 14 12 11 10 9 9 10 12 15 18 20 21 21 21 21 21 22 23 23 23 22 22 22 22 23 24 25 26
15 15 13 12 12 13 13 12 11 10 9 8 8 9 10 11 11 11 11 10 8 8 6 4 4 5 5 7 10 12 12 10 9 8 8 8 10 9 8 7 7 7 8 9 10 11 13 13 13 14 14 15 16 16 17 17 16 14 12 11 9 9 10 11 13 15 17 19 20 21 21 22 23 23 24 24 23 21 21 22 23 24 26 27 29
19 18 17 16 15 15 15 14 13 11 10 9 8 7 7 9 11 13 15 15 14 15 13 10 9 8 7 7 8 9 10 9 9 10 10 10 12 12 12 12 12 12 13 14 13 13 15 15 16 16 16 16 17 17 18 17 15 14 12 11 10 10 11 13 14 15 17 18 19 20 21 22 22 23 23 23 21 20 20 22 24 26 28 30 32
22 20 18 18 18 19 19 18 17 16 15 14 13 12 11 10 10 11 12 13 14 16 17 16 14 13 12 12 11 11 11 11 11 11 11 12 12 13 15 15 16 17 18 18 18 17 16 18 19 19 18 18 18 18 17 16 14 13 12 11 11 12 13 14 15 16 16 17 18 19 20 20 20 20 19 19 19 20 22 24 27 29 31 32 33
24 23 21 18 18 19 20 21 20 21 20 19 18 18 16 15 14 13 13 13 13 14 16 16 15 15 15 15 15 15 14 14 14 13 13 14 14 14 16 17 19 20 21 22 22 21 19 19 20 20 19 19 18 17 16 14 12 12 12 12 12 13 14 15 16 16 16 17 17 18 19 18 18 18 19 20 21 23 25 27 28 30 30 31 31
23 24 23 21 20 20 21 21 20 21 22 22 21 21 21 20 18 17 15 15 15 15 16 17 17 17 17 18 18 18 18 18 17 16 16 17 16 15 16 17 20 21 22 24 25 23 21 20 19 19 18 18 17 16 14 12 11 11 13 14 14 14 15 15 16 16 17 17 18 18 17 18 19 20 21 22 23 25 25 26 26 27 27 27 27
26 26 26 26 26 26 25 24 22 20 20 21 21 22 23 23 22 21 20 19 18 17 18 18 17 17 18 19 20 21 21 21 20 19 19 19 19 19 19 20 20 22 24 25 25 24 22 20 18 18 18 16 15 14 12 11 13 14 15 15 16 16 16 16 16 16 17 17 17 17 17 18 19 20 21 22 22 23 23 23 23 23 24 25 26
26 26 26 27 28 30 31 30 28 25 23 21 19 18 19 20 20 21 22 21 21 21 21 20 19 18 17 17 19 20 21 21 21 21 21 21 21 21 21 21 21 22 23 24 25 25 24 22 19 17 15 15 14 13 13 13 14 15 15 15 16 16 17 17 16 15 15 15 15 16 17 17 18 19 19 20 21 21 21 21 22 23 24 26 27
25 25 26 26 26 28 31 32 33 32 30 27 24 20 17 17 17 17 17 17 18 18 19 20 20 20 19 18 18 19 19 19 19 20 21 21 21 21 22 21 21 22 22 23 25 25 23 19 16 14 15 16 15 13 13 13 12 13 14 15 16 17 16 15 13 13 13 14 14 15 15 16 17 17 18 19 20 21 22 22 23 24 25 25 25
26 26 26 26 27 28 30 31 32 33 32 32 31 28 25 23 22 20 19 17 17 17 17 17 18 19 20 20 20 20 20 20 20 20 20 21 21 22 23 23 22 22 21 21 22 21 18 15 14 15 17 17 14 11 12 12 12 12 14 16 17 16 14 12 12 11 12 13 14 15 16 16 17 17 18 19 20 21 22 22 22 22 22 22 22
26 27 26 26 27 28 29 30 31 31 31 31 33 34 33 31 30 29 27 25 23 22 21 20 19 18 18 18 18 19 19 19 19 19 19 19 20 21 22 23 21 19 18 17 19 18 16 15 14 15 15 13 10 10 11 11 11 13 15 16 15 13 11 11 11 11 12 13 14 15 16 17 17 17 17 18 18 19 19 19 19 19 21 21 21
27 27 28 28 27 28 29 31 32 32 31 31 32 33 34 34 34 34 33 32 31 29 28 26 25 23 21 20 19 18 17 17 17 18 18 19 18 19 20 20 19 18 17 18 18 17 17 16 14 13 13 12 11 10 10 11 13 15 15 15 13 11 11 10 11 11 12 13 14 15 15 16 16 15 15 15 16 17 18 19 20 21 21 21 21
32 32 32 32 31 30 31 32 33 32 31 31 31 31 32 32 32 32 33 33 33 32 31 30 30 29 27 25 23 21 20 20 19 19 20 20 20 19 19 19 19 20 20 18 17 16 16 15 15 14 13 12 11 10 11 14 16 16 14 12 11 10 10 10 10 11 12 13 14 13 13 12 12 12 13 14 15 17 18 20 21 21 21 21 21
Wind_Direction
183 180 176 171 168 166 165 167 171 171 169 168 170 173 177 177 179 181 182 187 188 185 185 189 190 184 182 181 181 188 197 218 233 230 220 205 201 197 195 202 206 210 219 222 225 225 228 236 239 238 237 234 233 228 222 216 206 204 210 214 217 218 214 209 203 200 202 204 209 215 221 228 235 238 238 237 239 242 246 246 244 242 241 239 239
186 182 178 173 170 167 169 174 178 179 178 182 185 184 182 180 179 177 176 178 175 169 170 174 179 179 179 181 184 187 191 210 219 215 233 228 216 207 202 207 208 210 217 220 225 229 231 234 235 234 232 231 233 229 222 216 207 205 212 215 217 220 215 206 203 200 199 210 224 231 235 235 235 240 244 248 251 251 248 246 246 247 248 247 244
188 185 180 174 172 171 175 180 184 186 185 190 191 185 181 180 179 177 174 170 164 160 159 162 172 181 184 185 188 190 185 190 196 190 211 225 222 214 209 215 224 226 224 222 229 233 233 230 228 229 227 224 227 227 222 216 211 208 213 217 218 222 219 209 205 206 216 236 256 257 248 238 236 241 252 260 266 267 256 245 242 242 245 247 247
190 188 183 176 176 179 182 184 186 189 191 193 190 185 182 181 182 180 173 166 161 161 161 163 168 175 184 189 192 192 185 187 198 203 211 217 213 208 205 206 220 231 227 225 234 237 232 225 225 228 220 213 212 214 214 215 216 213 214 217 219 222 223 217 213 219 235 251 266 261 243 235 228 224 240 267 274 293 279 251 241 240 244 249 250
189 188 184 179 181 186 187 187 188 191 195 196 191 187 184 184 185 182 175 170 168 167 168 170 170 177 189 190 190 193 190 190 198 201 202 205 199 191 190 189 201 218 220 220 229 236 226 208 210 211 199 196 193 190 195 201 207 210 213 217 219 223 225 225 227 234 246 255 259 251 238 233 216 213 215 175 20 23 36 2 245 241 249 258 262
188 186 184 183 184 188 190 191 191 194 197 199 196 192 188 186 185 182 180 180 179 175 176 181 183 190 200 200 201 204 199 195 198 193 185 188 187 179 176 178 188 203 214 220 217 214 207 192 197 198 190 189 179 171 177 183 189 199 209 216 220 224 227 231 235 242 250 255 255 247 242 241 215 211 212 204 336 15 33 22 7 266 254 262 270
186 185 186 187 186 189 192 193 194 195 197 200 200 198 193 189 185 184 185 188 189 184 182 188 194 203 217 219 217 219 215 203 190 177 172 177 180 178 176 177 186 198 211 219 209 201 203 198 197 197 195 192 181 175 178 179 183 190 199 208 215 221 227 235 241 246 251 251 249 243 240 243 239 238 243 259 289 309 320 330 328 304 286 270 273
185 187 189 190 189 190 193 195 197 197 197 201 203 202 198 193 189 188 190 193 197 193 189 193 199 207 222 224 219 226 229 204 175 166 168 172 177 182 184 184 191 199 206 210 202 193 198 201 205 206 202 194 184 181 182 181 182 182 183 188 197 207 216 226 232 237 242 241 239 236 234 239 246 256 266 271 279 294 322 326 264 273 305 288 285
189 191 191 191 191 191 194 197 199 199 199 203 207 206 203 198 194 193 194 198 202 198 195 197 199 205 220 221 217 224 219 189 170 167 169 169 171 179 186 190 194 196 196 200 198 193 198 205 209 209 202 195 195 196 192 186 185 182 166 148 145 164 188 199 208 221 229 229 228 224 224 233 243 253 261 261 260 248 181 191 226 228 193 222 299
192 194 192 192 193 193 195 198 201 203 203 206 210 211 209 205 202 200 200 202 204 202 200 198 192 197 215 220 221 219 201 179 172 173 171 166 164 166 172 175 180 182 185 192 197 198 205 213 212 206 199 192 194 200 205 206 201 189 165 130 111 109 121 136 151 170 175 182 198 203 210 224 236 246 253 248 240 228 209 212 227 238 257 279 287
193 195 194 195 196 196 198 201 203 204 204 208 212 214 214 212 208 205 203 203 205 204 202 198 190 193 210 219 221 212 192 182 180 178 171 164 161 159 157 156 155 160 169 179 188 193 199 207 208 208 208 208 210 215 222 226 222 216 213 215 152 127 120 121 128 127 116 115 135 160 191 222 243 253 256 248 238 239 247 254 262 276 287 292 293
191 192 195 197 199 200 201 204 206 205 205 209 213 216 216 215 212 205 200 199 202 202 202 201 195 196 208 215 214 203 191 190 187 179 173 166 162 158 155 155 152 148 150 157 167 174 172 167 162 166 183 199 211 217 222 219 215 219 227 234 186 150 142 136 136 131 126 138 153 176 221 249 261 270 277 276 276 282 288 290 293 296 297 303 316
183 186 192 198 202 205 207 208 209 208 208 210 213 214 214 213 209 203 200 200 201 201 203 204 198 198 206 208 205 200 198 200 193 182 176 168 161 156 151 151 152 150 147 147 149 148 140 134 131 127 129 137 139 132 120 117 124 127 129 130 127 131 134 130 125 118 120 124 136 177 217 243 255 263 269 277 283 288 292 295 300 306 311 324 340
162 168 175 185 195 203 210 213 213 212 209 208 209 209 209 210 207 203 203 204 200 196 197 202 199 198 200 200 199 202 208 210 202 189 179 170 160 153 146 141 144 148 149 151 149 147 145 142 138 133 129 126 122 118 112 108 109 109 111 114 118 122 123 124 125 123 128 135 145 166 190 217 239 254 259 269 279 282 286 288 293 304 315 337 303
141 150 155 165 175 184 195 204 211 213 212 210 209 208 208 208 204 201 201 200 197 191 191 203 206 199 195 194 199 211 218 219 210 196 181 170 162 153 146 139 137 141 146 150 152 153 154 152 149 144 135 127 119 118 120 115 112 111 110 114 118 121 122 124 129 130 136 145 150 156 161 173 194 226 258 284 301 307 313 316 323 329 329 359 94
128 137 143 155 162 164 174 179 194 209 215 216 215 214 213 211 206 204 207 213 219 215 209 210 209 200 194 190 196 213 222 222 213 201 182 172 168 158 149 142 137 137 140 146 149 153 156 155 153 151 142 133 126 124 124 118 111 106 101 103 108 113 117 119 122 127 133 136 139 144 146 147 146 131 85 9 351 352 349 338 340 348 349 357 41
123 130 134 143 148 144 150 158 174 197 212 220 222 222 220 220 219 217 221 229 230 226 217 208 203 198 192 186 192 209 220 222 216 204 186 175 170 161 152 148 143 138 137 140 142 144 148 150 150 148 144 136 131 129 124 114 107 97 91 91 93 95 100 104 109 114 119 118 116 120 126 124 112 94 65 36 24 15 11 2 357 358 357 354 357
124 128 130 134 135 128 125 133 160 187 203 215 222 226 227 229 230 227 228 231 229 228 218 203 198 194 188 187 194 206 215 219 219 211 195 181 173 168 163 157 152 147 143 141 141 141 141 143 144 144 142 136 131 126 121 114 103 92 88 87 85 85 86 87 88 89 96 101 106 111 108 101 88 69 47 31 25 24 24 19 12 8 8 3 353
119 120 121 122 121 115 112 113 139 174 188 197 206 221 228 232 232 229 229 231 231 229 217 203 197 192 188 193 200 207 213 215 218 218 205 190 180 177 173 165 160 155 151 147 145 142 140 141 141 139 139 138 136 131 128 125 117 110 104 98 95 94 88 82 74 65 65 75 90 105 103 101 94 76 53 32 14 3 360 2 7 8 1 355 348
117 116 115 117 118 118 116 111 122 150 163 168 177 198 215 224 228 227 226 228 229 224 214 206 198 191 194 199 200 207 213 212 215 218 212 199 189 186 182 177 171 162 156 155 153 149 146 144 143 143 143 143 146 147 146 144 142 139 134 130 132 134 127 117 105 79 32 15 14 66 93 115 116 106 87 53 17 352 345 347 352 355 348 340 339
123 121 120 122 125 129 126 119 125 139 145 151 165 183 202 216 221 220 221 223 222 218 213 207 198 194 202 205 201 206 212 212 213 217 215 206 198 196 192 188 185 175 166 163 161 159 156 152 151 152 153 153 157 164 167 167 172 178 180 185 195 198 195 202 212 218 228 246 260 258 252 242 202 133 100 44 12 349 337 340 344 343 338 333 332
126 126 128 129 130 131 131 130 136 145 148 149 160 173 188 208 216 217 219 220 218 216 213 210 204 201 207 209 207 211 215 213 212 216 217 210 204 204 201 197 197 191 179 171 165 163 162 163 163 164 169 171 172 183 194 198 199 208 218 226 234 232 228 233 237 234 234 241 249 249 248 250 255 260 285 333 341 337 333 334 333 329 328 327 326
126 133 137 140 140 139 139 141 146 151 154 156 165 172 177 193 208 215 219 218 217 218 216 212 209 207 209 212 213 215 218 215 215 221 222 215 209 208 207 205 202 198 191 185 178 173 172 173 175 177 181 184 189 201 222 241 242 240 244 246 250 252 249 249 250 246 242 248 256 257 253 248 253 263 273 290 308 321 325 325 323 320 319 319 319
122 132 138 141 143 145 147 149 154 159 162 162 167 175 182 190 198 208 216 215 213 216 216 214 214 212 214 217 216 216 217 214 214 221 223 218 214 212 211 210 208 204 199 193 189 189 189 191 195 197 200 211 227 238 247 262 270 273 271 264 261 261 263 264 267 266 262 262 266 268 267 263 259 261 267 278 292 304 310 311 311 313 313 314 313
121 127 130 128 126 129 140 150 156 160 166 167 167 176 186 194 201 206 211 213 212 213 214 213 214 216 221 225 223 219 217 214 215 218 218 217 215 213 213 213 211 210 206 202 198 198 202 209 214 219 230 244 250 250 253 260 270 279 283 282 278 273 270 269 270 272 272 273 273 273 275 276 275 273 274 276 281 286 291 294 298 303 308 311 311
136 138 137 132 121 116 123 139 154 158 163 168 170 177 184 191 202 206 209 211 212 214 214 211 210 216 226 229 225 221 219 218 218 218 217 217 214 211 213 214 216 215 212 211 211 212 215 220 225 234 249 263 265 259 257 261 266 272 278 281 282 280 278 275 272 271 271 271 272 272 271 274 279 284 285 285 284 284 285 285 289 296 302 304 304
155 155 154 146 131 122 118 125 145 157 164 168 171 178 185 191 198 203 208 211 210 211 213 213 213 220 229 227 221 220 218 215 211 208 210 211 209 209 211 212 215 217 218 221 224 230 235 234 234 241 256 270 269 263 265 271 271 271 274 275 278 279 278 277 276 274 272 271 271 270 269 272 279 285 290 293 290 285 282 282 283 289 295 299 301
180 175 171 162 145 138 131 127 136 149 162 170 172 177 185 192 196 199 206 211 209 208 212 216 217 221 226 224 219 218 217 215 207 201 202 203 203 207 212 212 215 219 223 228 235 243 245 242 241 246 257 264 261 262 273 277 273 271 269 270 274 276 275 276 276 274 272 273 273 273 272 274 279 284 291 295 293 287 284 283 283 287 292 297 300
187 188 186 178 163 154 150 150 147 146 155 164 172 180 185 191 196 199 204 208 209 209 213 218 221 224 229 231 227 221 221 231 231 221 216 214 212 214 216 217 223 226 228 234 243 245 240 237 238 240 244 246 248 260 273 274 269 267 267 269 272 272 271 273 273 273 272 271 272 274 275 276 277 280 287 292 290 289 289 286 285 289 294 298 301
172 178 180 180 176 169 165 166 167 167 163 158 162 179 187 193 197 198 201 204 206 207 208 211 215 218 222 227 231 231 230 235 239 238 236 235 228 224 222 224 230 232 232 235 239 237 233 233 235 236 240 243 248 258 266 266 264 263 262 265 268 269 268 269 269 269 269 270 272 275 275 273 272 274 281 287 287 286 287 287 287 290 295 299 302
170 157 156 159 167 175 176 174 174 177 175 167 163 168 178 190 196 196 194 192 192 191 183 177 179 179 179 187 199 208 211 216 223 224 218 212 211 214 218 224 227 226 225 227 228 230 233 236 237 241 245 247 248 251 254 257 259 259 258 260 264 267 268 269 267 265 267 269 271 271 269 268 268 270 275 280 281 281 284 285 286 290 296 300 303
179 150 142 138 144 162 172 173 172 175 178 180 184 180 169 179 192 197 194 185 179 175 167 159 152 148 151 156 165 177 185 193 201 199 191 189 192 199 208 215 217 216 218 223 226 228 231 233 236 239 242 243 244 246 249 253 255 257 258 260 262 264 265 266 265 263 265 267 266 264 263 262 263 265 270 274 276 278 281 284 286 292 297 299 301
107 118 130 135 134 134 139 151 165 180 191 192 187 180 173 178 190 197 194 184 179 173 166 163 158 155 162 166 171 181 187 194 200 200 197 196 197 203 209 212 214 217 221 224 227 228 228 229 232 235 239 243 247 250 254 256 256 255 257 259 261 263 265 264 262 262 263 262 261 259 257 256 257 259 266 270 272 279 285 286 288 292 294 296 300
88 100 107 112 115 114 112 115 127 156 189 194 191 193 187 180 186 190 189 187 191 187 183 193 205 215 213 200 194 195 196 197 198 194 192 193 195 198 202 204 206 212 218 224 228 228 232 240 246 251 252 251 251 254 258 261 261 259 257 258 260 263 265 264 261 259 257 254 253 253 250 251 253 258 266 270 274 285 290 287 287 290 291 294 298
61 86 109 106 103 105 101 96 97 102 136 172 180 185 182 176 181 186 188 193 197 200 212 223 226 223 217 211 206 203 200 199 197 194 195 198 200 203 208 212 214 217 225 235 242 243 242 249 261 269 268 263 263 265 267 269 271 271 269 265 262 261 263 264 261 258 253 247 245 244 243 245 252 258 266 270 275 283 285 283 284 287 290 293 295
36 40 66 86 100 107 87 72 88 98 105 123 138 165 184 189 194 193 192 200 204 210 218 209 195 194 203 207 212 211 204 197 194 196 198 199 202 208 215 221 226 229 235 242 248 251 253 253 257 264 266 266 267 268 267 267 270 274 278 277 271 265 266 267 263 257 251 243 238 237 241 249 257 262 267 269 273 277 278 277 279 282 286 290 291
29 26 27 15 347 331 339 330 333 91 94 90 79 92 165 182 191 189 189 207 223 230 217 206 203 199 194 197 209 213 208 205 205 201 190 182 184 193 202 210 219 227 235 242 246 249 252 253 256 260 263 265 266 266 266 269 272 276 277 279 281 280 278 273 264 257 250 242 238 241 249 257 261 262 263 265 269 272 272 273 275 279 284 287 287
20 16 15 16 9 358 344 319 301 299 299 330 9 17 120 129 153 179 188 204 218 213 195 207 217 213 208 213 220 216 211 215 226 231 216 200 193 197 202 206 214 223 234 245 249 252 254 255 256 259 262 266 270 273 278 284 289 289 284 281 283 286 284 275 264 258 252 248 248 251 254 257 258 259 261 263 266 267 269 271 276 280 283 282 281
3 1 359 4 4 360 356 346 331 318 304 291 291 291 273 257 280 256 216 207 210 211 197 192 200 202 213 226 222 215 215 221 232 238 234 244 272 268 236 224 232 244 250 252 253 257 262 263 263 262 264 266 270 275 281 288 296 300 294 285 281 278 274 270 263 260 258 257 257 257 256 255 256 258 262 264 265 266 269 273 277 279 280 281 281
337 336 334 338 341 341 340 338 336 336 332 318 301 292 272 254 257 266 253 235 231 240 241 229 209 198 204 210 204 206 215 224 232 237 241 259 276 274 261 259 271 279 284 282 272 264 262 264 267 268 268 269 270 274 279 285 293 298 293 283 274 268 266 266 263 261 261 260 259 257 257 256 257 259 262 263 264 268 272 275 277 279 281 283 285
326 323 320 316 314 319 321 318 314 312 318 322 315 305 282 257 250 253 251 248 248 250 252 257 254 241 229 224 212 205 207 211 221 233 247 262 273 275 275 280 284 287 292 295 290 279 269 265 265 266 266 268 269 270 273 277 282 286 284 276 268 267 268 268 264 260 260 261 260 259 259 260 262 262 262 262 264 269 274 276 279 282 284 286 288
314 314 316 311 304 304 305 304 302 297 297 304 303 294 286 275 262 251 245 246 247 247 250 256 259 255 251 250 245 233 226 226 230 238 249 260 268 274 276 279 285 288 290 293 295 291 277 266 264 264 263 263 264 265 267 269 272 274 274 269 268 270 272 271 267 263 262 263 263 264 264 264 262 261 260 262 267 273 277 280 283 285 287 288 290
305 304 306 305 300 298 296 295 295 290 288 292 295 293 289 281 272 264 257 254 250 245 245 248 252 253 254 253 250 245 243 246 250 256 260 260 262 265 267 271 277 281 283 287 291 291 280 270 268 267 263 261 261 261 262 264 266 266 265 264 265 266 267 269 269 268 266 265 264 263 263 262 261 263 267 272 276 280 283 286 288 289 289 290 291
295 293 294 295 293 293 292 289 288 286 283 282 284 288 288 283 276 270 264 262 261 257 253 250 249 250 251 253 254 255 255 259 264 267 263 256 253 256 261 264 268 273 277 281 284 285 280 274 271 269 265 261 260 261 261 264 265 263 262 263 261 259 261 266 269 267 264 262 260 258 258 261 266 271 275 279 283 286 288 290 290 290 291 292 294
292 289 287 287 287 288 288 286 284 284 281 278 278 280 282 281 278 274 268 265 265 266 263 256 250 248 250 253 256 259 261 263 263 261 258 256 258 262 265 264 265 269 273 276 278 279 277 273 269 266 263 261 261 260 259 264 268 267 263 261 258 258 261 263 263 261 259 259 260 261 263 268 271 275 278 282 285 286 287 287 288 289 292 295 298
294 291 289 287 284 283 282 281 280 280 280 279 277 277 278 278 277 275 271 267 263 261 260 256 251 249 249 252 253 254 256 257 256 256 257 259 261 264 265 263 262 264 266 269 272 272 269 264 258 255 258 263 262 256 257 265 269 264 259 257 256 257 259 258 259 260 260 262 264 266 268 271 273 275 277 279 281 282 283 285 288 292 296 298 299
294 294 293 291 287 282 280 279 277 276 276 276 273 269 268 269 268 266 263 260 255 252 251 249 248 247 247 248 249 249 250 251 253 255 256 257 259 261 261 261 260 257 258 263 265 265 263 260 256 260 267 264 253 249 260 271 270 262 259 258 256 255 255 256 257 258 258 259 262 265 268 271 273 276 278 280 283 286 288 291 294 296 297 297 297
291 290 289 287 284 282 281 280 277 275 274 274 272 267 263 263 264 263 261 257 253 250 246 242 241 241 241 241 241 243 246 247 250 251 251 252 255 257 258 261 259 255 254 257 259 261 266 270 276 280 273 257 246 257 272 272 268 266 261 255 253 253 254 255 254 253 254 258 263 268 273 277 280 282 284 287 289 291 293 295 296 296 296 296 296
285 284 282 279 278 278 278 279 278 277 277 276 273 270 266 264 265 267 268 266 263 259 255 251 246 241 238 236 236 239 242 244 247 248 247 251 256 257 257 258 257 253 253 255 257 262 271 278 283 282 269 257 264 283 279 265 262 262 254 249 249 249 248 249 250 252 257 264 270 275 279 282 284 286 288 290 292 294 295 295 295 295 296 298 302
280 278 276 273 272 271 271 272 273 275 276 275 272 270 268 266 266 267 269 270 269 267 264 261 258 255 250 245 242 242 244 245 246 247 248 254 259 257 252 251 251 250 251 253 254 261 270 274 273 268 262 267 281 286 269 253 248 244 240 238 239 237 239 244 250 258 267 274 278 281 283 284 287 293 297 301 303 302 302 300 299 299 302 307 312
280 278 276 274 273 271 271 270 271 272 272 270 269 268 268 268 267 266 265 266 267 267 266 263 262 261 260 259 257 253 252 252 252 253 256 258 258 253 248 247 248 247 245 245 248 259 268 269 266 261 259 263 267 261 249 241 234 228 227 228 226 230 239 250 261 272 280 282 282 283 284 289 299 309 312 311 310 308 307 307 309 312 316 320 322